Weather History for KAIA - March, 2013

Nearest airport to NA, NA.

See history from more local stations
Change the Weather History Date:

Sunday, March 31, 2013

  Actual Average Record
Temperature  
Mean Temperature 42 °F 41 °F  
Max Temperature 67 °F 56 °F 81 °F (2012)
Min Temperature 17 °F 27 °F 2 °F (1954)
Degree Days  
Heating Degree Days 23 24  
Month to date heating degree days 919 882  
Since 1 July heating degree days 6032 6286  
Cooling Degree Days 0 0  
Month to date cooling degree days 0 0  
Year to date cooling degree days 0 0  
Moisture  
Dew Point 22 °F    
Average Humidity 56    
Maximum Humidity 96    
Minimum Humidity 16    
Precipitation  
Precipitation 0.00 in 0.06 in 1.06 in (1929)
Month to date precipitation T 0.85  
Year to date precipitation 0.52 1.41  
Sea Level Pressure  
Sea Level Pressure 30.06 in    
Wind  
Wind Speed 12 mph (NW)    
Max Wind Speed 31 mph    
Max Gust Speed 47 mph    
Visibility 10 miles    
Events      
T = Trace of Precipitation, MM = Missing Value Source: NWS Daily Summary

Daily Weather History Graph

Daily Weather History Graph

Search for Another Location

Airport or City:

Trip Planner

Search our weather history database for the weather conditions in past years. The results will help you decide how hot, cold, wet, or windy it might be!

Date:

Astronomy

Mar. 31, 2013 Rise Set
Actual Time 6:35 AM MDT 7:16 PM MDT
Civil Twilight 6:06 AM MDT 7:44 PM MDT
Nautical Twilight 5:33 AM MDT 8:17 PM MDT
Astronomical Twilight 4:59 AM MDT 8:52 PM MDT
Moon No Moon Rise 9:20 AM MDT (3/31)
Length of Visible Light 13h 37m
Length of Day
12h 41m
Waning Gibbous, 77% of the Moon is Illuminated
Mar 31
Waning Gibbous
Apr 2
Last Quarter
Apr 10
New
Apr 18
First Quarter
Apr 25
Full

Hourly Weather History & Observations

Time (MDT) Temp. Windchill Dew Point Humidity Pressure Visibility Wind Dir Wind Speed Gust Speed Precip Events Conditions
12:53 AM 27.0 °F 17.3 °F 25.0 °F 92% 30.18 in 10.0 mi WNW 10.4 mph - N/A   Clear
1:53 AM 23.0 °F 15.8 °F 21.9 °F 96% 30.18 in 10.0 mi WNW 5.8 mph - N/A   Clear
2:53 AM 19.9 °F - 17.1 °F 89% 30.17 in 10.0 mi Calm Calm - N/A   Clear
3:53 AM 19.0 °F 10.0 °F 16.0 °F 88% 30.14 in 10.0 mi WSW 6.9 mph - N/A   Clear
4:53 AM 19.0 °F 11.1 °F 17.1 °F 92% 30.13 in 10.0 mi WSW 5.8 mph - N/A   Clear
5:53 AM 19.0 °F - 15.1 °F 85% 30.12 in 10.0 mi Calm Calm - N/A   Clear
6:53 AM 17.1 °F - 15.1 °F 92% 30.12 in 10.0 mi Calm Calm - N/A   Clear
7:53 AM 27.0 °F - 25.0 °F 92% 30.11 in 10.0 mi Calm Calm - N/A   Clear
8:53 AM 39.0 °F 36.8 °F 35.1 °F 86% 30.07 in 10.0 mi South 3.5 mph - N/A   Clear
9:53 AM 50.0 °F - 35.1 °F 57% 30.02 in 10.0 mi SSW 10.4 mph - N/A   Clear
10:53 AM 57.0 °F - 27.0 °F 32% 29.98 in 10.0 mi West 17.3 mph - N/A   Clear
11:53 AM 61.0 °F - 23.0 °F 23% 29.96 in 10.0 mi WNW 17.3 mph 25.3 mph N/A   Clear
12:53 PM 63.0 °F - 21.0 °F 20% 29.93 in 10.0 mi West 18.4 mph 31.1 mph N/A   Clear
1:53 PM 64.9 °F - 21.9 °F 19% 29.92 in 10.0 mi WNW 19.6 mph 27.6 mph N/A   Clear
2:53 PM 66.9 °F - 19.0 °F 16% 29.91 in 10.0 mi NNW 20.7 mph 34.5 mph N/A   Partly Cloudy
3:53 PM 64.9 °F - 19.9 °F 18% 29.91 in 10.0 mi NW 28.8 mph 35.7 mph N/A   Mostly Cloudy
4:53 PM 62.1 °F - 21.0 °F 21% 29.93 in 10.0 mi NW 25.3 mph 35.7 mph N/A   Partly Cloudy
5:53 PM 59.0 °F - 25.0 °F 27% 29.97 in 10.0 mi North 19.6 mph 28.8 mph N/A   Partly Cloudy
6:53 PM 50.0 °F - 26.1 °F 39% 30.04 in 10.0 mi NE 21.9 mph - N/A   Clear
7:53 PM 42.1 °F 34.9 °F 23.0 °F 47% 30.07 in 10.0 mi NE 13.8 mph - N/A   Clear
8:53 PM 37.9 °F 28.9 °F 19.0 °F 47% 30.10 in 10.0 mi NE 16.1 mph - N/A   Clear
9:53 PM 33.1 °F 24.9 °F 17.1 °F 52% 30.13 in 10.0 mi ENE 10.4 mph - N/A   Clear
10:53 PM 30.0 °F 23.2 °F 17.1 °F 59% 30.15 in 10.0 mi ENE 6.9 mph - N/A   Clear
11:53 PM 26.1 °F 16.8 °F 17.1 °F 69% 30.17 in 10.0 mi NE 9.2 mph - N/A   Clear